カタログに戻る

SL-16 DEB

運用中SSO
NORAD 27690·DEBRIS·🇷🇺 Russia

打ち上げ Dec 10, 2001 から Baikonur Cosmodrome

Loading…

次のパス (今後24時間)

TLE

最新Source: Space-Track

元期: Sep 14, 2026, 11:49 UTC

1 27690U 01056J   26257.49239909 -.00000019  00000-0  51207-4 0  9993
2 27690 100.3594 127.2633 0182982  25.8403  91.3056 13.31101961202367

AllMySatでSL-16 DEBをリアルタイム追跡

Download on the App Store